Location: Allos
(44.2333°N, 6.6333°E)
Time: 19:39:51
(UTC+00:00)

Cosmos 2228 Rocket - Pass Details

Date: 23 April 2021
Orbit: 617 x 652 km, 82.5° (Epoch: 05 May)

Event Time Altitude Azimuth Distance (km) Brightness Sun altitude
Exits shadow 23:17:28 21° 33° (NNE) 1,410 5.3 -32.8°
Drops below altitude 10° 23:19:05 10° 23° (NNE) 1,992 6.3 -32.8°
Sets 23:21:24 0° 16° (NNE) 2,904 7.5 -32.9°
